Location: ???? ????
(31.2831°N, 45.5190°E)
Time: 04:54:04
(UTC+00:00)

OAO 3 Copernicus - Pass Details

Date: 24 February 2021
Orbit: 694 x 705 km, 35.0° (Epoch: 14 April)

Event Time Altitude Azimuth Distance (km) Brightness Sun altitude
Rises 15:32:56 0° 287° (WNW) 3,083 9.1 -9.4°
Reaches altitude 10° 15:35:21 10° 287° (WNW) 2,164 8.1 -9.9°
Maximum altitude 15:40:26 86° 199° (SSW) 705 4.3 -11.0°
Enters shadow 15:44:50 14° 111° (ESE) 1,906 6.0 -11.9°
